Regional Weather Roundup
Issued by NWS

Home | Current Version | Previous Version | Graphics & Text | Print | Product List | Glossary On
Versions: 1 2 3 4 5 6 7 8 9 10 11 12 13 14 15 16 17 18 19 20 21 22 23 24 25 26 27
000
ASUS45 KCYS 231910
RWRWY

WYOMING REGIONAL WEATHER ROUNDUP
NATIONAL WEATHER SERVICE CHEYENNE WY
1200 PM MST FRI FEB 23 2018

NOTE:  "FAIR" INDICATES FEW OR NO CLOUDS BELOW 12,000 FEET
WITH NO SIGNIFICANT WEATHER AND/OR OBSTRUCTIONS TO VISIBILITY.

WYZ001-232000-
YELLOWSTONE NATIONAL PARK

CITY           SKY/WX    TMP DP  RH WIND       PRES   REMARKS
LK YELLOWSTONE   N/A      6  -1  73 CALM      29.92F
W YELLOWSTONE  NOT AVBL

$$
WYZ002>013-054>058-071-098>099-232000-
NORTHERN WYOMING

CITY           SKY/WX    TMP DP  RH WIND       PRES   REMARKS
JACKSON        FAIR      16   5  62 SE5       29.97S WCI   9
CODY           FAIR      23   5  46 S7        29.99F WCI  15
GREYBULL       FAIR       3  -2  79 N3        30.11F
WORLAND        FAIR      11   2  67 CALM      30.07F
SHERIDAN       FAIR      10   0  63 CALM      30.04F
BUFFALO        FAIR      14   1  56 SE5       29.97F WCI   6
GILLETTE       FAIR      19   4  51 S17       30.02F WCI   4
HULETT         FAIR      21   5  49 SW7       30.04F WCI  13
NEWCASTLE      FAIR      14   5  67 CALM      30.10F

$$
WYZ014>020-022>026-101>103-232000-
CENTRAL WYOMING

CITY           SKY/WX    TMP DP  RH WIND       PRES   REMARKS
BIG PINEY      PTSUNNY   22  10  60 NE7       29.90F WCI  13
PINEDALE       FAIR      19  10  68 NW10      29.90F WCI   8
DUBOIS           N/A    N/A N/A N/A MISG        N/A
LANDER         FAIR      15   5  64 E5        29.97F WCI   8
RIVERTON       FAIR       8  -1  66 E5        29.99F WCI   0
CASPER         CLOUDY    10   0  63 CALM      30.00F
DOUGLAS        FAIR      10   2  69 N3        30.04F

$$
WYZ021-027>030-104>119-232000-
SOUTHERN WYOMING

CITY           SKY/WX    TMP DP  RH WIND       PRES   REMARKS
EVANSTON       FAIR      13   8  81 S3        29.89R
FORT BRIDGER   LGT SNOW   9   7  92 NE3       29.93
ROCK SPRINGS   LGT SNOW  14  11  87 S3        29.89F VSB 3/4
DIXON          CLOUDY    30  11  45 SW7       29.90F WCI  24
RAWLINS        PTSUNNY   21  16  81 S3        29.91F
SARATOGA       FAIR      30  14  51 SE12      29.88F WCI  21
LARAMIE        FAIR      24  16  71 SE18      29.88F WCI  10
CHEYENNE       PTSUNNY   25  18  74 S10       29.97F WCI  15
TORRINGTON     FAIR      29  13  51 SE9       30.07F WCI  20
PINE BLUFFS    MOCLDY    27  14  59 MISG      30.05F

$$




USA.gov is the U.S. government's official web portal to all federal, state and local government web resources and services.